Regional Weather Roundup
Issued by NWS Jackson, KY

Home | Current Version | Previous Version | Graphics & Text | Print | Product List | Glossary On
Versions: 1 2 3 4 5 6 7 8 9 10 11 12 13 14 15 16 17 18 19 20 21 22 23 24 25 26 27 28 29 30 31 32 33 34 35 36 37 38 39 40 41 42 43 44 45 46 47 48 49 50
000
ASUS43 KJKL 271111
RWRJKL

EAST KENTUCKY HOURLY WEATHER ROUNDUP
NATIONAL WEATHER SERVICE JACKSON KY
600 AM EST TUE JAN 27 2015

NOTE: "FAIR" INDICATES FEW OR NO CLOUDS BELOW 12,000 FEET WITH
NO SIGNIFICANT WEATHER AND/OR OBSTRUCTIONS TO VISIBILITY.

* THESE REPORTS ARE NOT UNDER NWS QUALITY CONTROL AND MAY NOT
  REPORT WEATHER SUCH AS PRECIPITATION AND FOG.

KYZ079-080-083-085-087-088-110-112-115-119-120-271200
...EASTERN KENTUCKY...

CITY           SKY/WX    TMP DP  RH WIND       PRES   REMARKS
JACKSON        CLOUDY    26  23  88 CALM      29.87R
LONDON         LGT SNOW  30  24  78 W6        29.87R WCI  24
SOMERSET*      CLOUDY    28  28 100 CALM      29.91S FOG
MONTICELLO*    LGT SNOW  30  30 100 CALM      29.92R FOG
MIDDLESBORO*   FLURRIES  29  29  97 CALM      29.87R
HARLAN APT*    CLOUDY    28  28 100 W3        29.84S
HAZARD APT*    CLOUDY    28  27  93 CALM      29.87R
BLACK MTN*       N/A     18  18 100 N5          N/A  WCI  11
PIKEVILLE APT* CLOUDY    25  21  86 CALM      29.86R
BIG SANDY*     CLOUDY    26  23  89 CALM      29.88R
MOREHEAD APT*  LGT SNOW  25  19  80 N5        29.93R WCI  19
$$

KYZ035-036-041-042-044-050-067-078-099-271200
...CENTRAL KENTUCKY...

CITY           SKY/WX    TMP DP  RH WIND       PRES   REMARKS
MT STERLING*   CLOUDY    27  23  86 NE5       29.91S WCI  21
FLEMING/MASON* LGT SNOW  19  16  86 NE5       29.94R WCI  12
DANVILLE*      CLOUDY    28  28 100 NW5       29.90S WCI  23
RICHMOND*      CLOUDY    27  27 100 CALM      29.89R
LEXINGTON      LGT SNOW  27  25  92 N3        29.90S FOG
FRANKFORT      CLOUDY    28  25  88 CALM      29.90R FOG
$$

KYZ091>093-OHZ055-061-077-WVZ005-015-034-035-042-271200
...SOUTHERN OHIO/WEST VIRGINIA...

CITY           SKY/WX    TMP DP  RH WIND       PRES   REMARKS
COVINGTON      CLOUDY    22  16  78 NE7       29.93R WCI  13
COLUMBUS       PTCLDY     7   3  84 N5        29.96R WCI  -2
DAYTON         PTCLDY    14  10  84 N5        29.96R WCI   6
WILMINGTON     PTCLDY    12   8  84 NE7       29.93R WCI   1
HUNTINGTON     PTCLDY    18  13  80 N5        29.92R WCI  11
CHARLESTON     CLEAR     17  13  84 N5        29.90R WCI  10
PINEVILLE*     CLOUDY    26  20  78 MISG      29.88R
BECKLEY        MOCLDY    19  12  74 NW12      29.77S WCI   7
BLUEFIELD      CLOUDY    21  13  71 NW7       29.75R WCI  12
$$

VAZ002-007-008-TNZ017-027-036-066-071-271200
...SOUTHWEST VIRGINIA/EAST TENNESSEE...

CITY           SKY/WX    TMP DP  RH WIND       PRES   REMARKS
WISE*          CLOUDY    25  25 100 N5        29.78R WCI  19
ABINGDON*      CLOUDY    28  19  70 N5        29.80S WCI  23
BRISTOL        CLOUDY    28  22  78 W3        29.83S
KNOXVILLE      LGT SNOW  31  29  92 SW8       29.88S FOG     WCI  23
OAK RIDGE      LGT SNOW  32  30  92 CALM      29.90R FOG
CROSSVILLE     CLOUDY    30  28  92 W6        29.85R FOG     WCI  24
NASHVILLE      CLOUDY    34  31  88 CALM      29.91R
$$

...KEY TO REMARKS...
VSB - VISIBILITY IN MILES
WCI - WIND CHILL INDEX
HX  - HEAT INDEX

$$


USA.gov is the U.S. government's official web portal to all federal, state and local government web resources and services.